{"data":{"norad_id":60948,"intl_designator":"2024-156D","name":"YAOGAN-43 02D","alt_names":[],"object_type":"PAYLOAD","status":"ACTIVE","operator":null,"country":"PRC","launch_date":"2024-09-03","launch_site_code":"XICLF","launch_vehicle":null,"mission":null,"orbit_class":"UNKNOWN","rcs_meters":null,"size_class":null,"mass_kg":null,"dimensions":null,"purposes":[],"wikipedia_slug":null,"has_3d_model":false,"image_url":null,"decayed_at":null,"tle_current":{"epoch":"2026-05-24T23:30:15.192000Z","epoch_age_seconds":70158,"freshness":"FRESH","line1":"1 60948U 24156D   26144.97934250  .00007000  00000+0  29176-3 0  9995","line2":"2 60948  34.9928 343.9096 0002539  13.5268 346.5515 15.23006227 95902","mean_motion":15.23006227,"eccentricity":0.0002539,"inclination_deg":34.9928,"raan_deg":343.9096,"arg_perigee_deg":13.5268,"mean_anomaly_deg":346.5515,"bstar":0.00029176,"rev_number":9590,"period_min":94.549843229236,"perigee_km":495.03333967227,"apogee_km":498.52442195655,"semimajor_km":6874.9158808144,"source":"CELESTRAK","updated_at":"2026-05-25T13:38:02.267421Z"}}}